SCP
0 0 0 1 0 0 0 0 0 0 0 0 0 0 0 0 0 0 0 0 0 0 0 0 0 0 0 0 0 0 0 0 0 0 0 0 0 0 0 0 0 0 0
0 0 0 1 0 0 0 0 0 0 0 0 0 0 0 0 0 0 0 0 0 0 0 0 0 0 0 0 0 0 0 0 0 0 0 0 0 0 0 0 0 0 0
0 0 0 1 0 0 0 0 0 0 0 0 0 0 0 0 0 0 0 0 0 0 0 0 0 0 0 0 0 0 0 0 0 0 0 0 0 0 0 0 0 0 0
0 0 0 0 0 0 0 0 0 0 0 0 0 0 0 0 0 0 0 0 0 0 0 0 0 0 0 0 0 0 0 0 0 0 0 0 0 0 0 0 0 0 0
0 0 0 0 0 0 0 0 0 0 0 0 0 0 0 0 0 0 0 0 0 0 0 0 0 0 0 0 0 0 0 0 0 0 0 0 0 0 0 0 0 0 0
0 0 0 0 0 0 0 0 0 0 0 0 0 0 0 0 0 0 0 0 0 0 0 0 0 0 0 0 0 0 0 0 0 0 0 0 0 0 0 0 0 0 0
0 0 0 0 0 0 0 0 0 0 0 0 0 0 0 0 0 0 0 0 0 0 0 0 0 0 0 0 0 0 0 0 0 0 0 0 0 0 0 0 0 0 0
0 0 0 0 0 0 0 0 0 0 0 0 0 0 0 0 0 0 0 0 0 0 0 0 0 0 0 0 0 0 0 0 0 0 0 0 0 0 0 0 0 0 0
0 0 0 0 0 0 0 0 0 0 0 0 0 0 0 0 0 0 0 0 0 0 0 0 0 0 0 0 0 0 0 0 0 0 0 0 0 0 0 0 0 0 0
0 0 0 0 0 0 0 0 0 0 0 0 0 0 0 0 0 0 0 0 0 0 0 0 0 0 0 0 0 0 0 0 0 0 0 0 0 0 0 0 0 0 0
0 0 0 0 0 0 0 0 0 0 0 0 0 0 0 0 0 0 0 0 0 0 0 0 0 0 0 0 0 0 0 0 0 0 0 0 0 0 0 0 0 0 0
0 0 0 0 0 0 0 0 0 0 0 0 0 0 0 0 0 0 0 0 0 0 0 0 0 0 0 0 0 0 0 0 0 0 0 0 0 0 0 0 0 0 0
0 0 0 0 0 0 0 0 0 0 0 0 0 0 0 0 0 0 0 0 0 0 0 0 0 0 0 0 0 0 0 0 0 0 0 0 0 0 0 0 0 0 0
0 0 0 0 0 0 0 0 0 0 0 0 0 0 0 0 0 0 0 0 0 0 0 0 0 0 0 0 0 0 0 0 0 0 0 0 0 0 0 0 0 0 0
0 0 0 0 0 0 0 0 0 0 0 0 0 0 0 0 0 0 0 0 0 0 0 0 0 0 0 0 0 0 0 0 0 0 0 0 0 0 0 0 0 0 0
0 0 0 0 0 0 0 0 0 0 0 0 0 0 0 0 0 0 0 0 0 0 0 0 0 0 0 0 0 0 0 0 0 0 0 0 0 0 0 0 0 0 0
0 0 0 0 0 0 0 0 0 0 0 0 0 0 0 0 0 0 0 0 0 0 0 0 0 0 0 0 0 0 0 0 0 0 0 0 0 0 0 0 0 0 0
0 0 0 0 0 0 0 0 0 0 0 0 0 0 0 0 0 0 0 0 0 0 0 0 0 0 0 0 0 0 0 0 0 0 0 0 0 0 0 0 0 0 0
0 0 0 0 0 0 0 0 0 0 0 0 0 0 0 0 0 0 0 0 0 0 0 0 0 0 0 0 0 0 0 0 0 0 0 0 0 0 0 0 0 0 0
0 0 0 0 0 0 0 0 0 0 0 0 0 0 0 0 0 0 0 0 0 0 0 0 0 0 0 0 0 0 0 0 0 0 0 0 0 0 0 0 0 0 0
0 0 0 0 0 0 0 0 0 0 0 0 0 0 0 0 0 0 0 0 0 0 0 0 0 0 0 0 0 0 0 0 0 0 0 0 0 0 0 0 0 0 0
0 0 0 0 0 0 0 0 0 0 0 0 0 0 0 0 0 0 0 0 0 0 0 0 0 0 0 0 0 0 0 0 0 0 0 0 0 0 0 0 0 0 0
0 0 0 0 0 0 0 0 0 0 0 0 0 0 0 0 0 0 0 0 0 0 0 0 0 0 0 0 0 0 0 0 0 0 0 0 0 0 0 0 0 0 0
0 0 0 0 0 0 0 0 0 0 0 0 0 0 0 0 0 0 0 0 0 0 0 0 0 0 0 0 0 0 0 0 0 0 0 0 0 0 0 0 0 0 0
0 0 0 0 -0 0 0 0 0 0 0 0 0 0 0 0 0 0 0 0 0 0 0 0 0 0 0 0 0 0 0 0 0 0 0 0 0 0 0 0 0 0 0
0 -0 -0 -0 -0 -0 0 0 0 0 0 0 0 0 0 0 0 0 0 0 0 -0 -0 0 0 0 0 0 0 0 0 0 0 0 0 0 0 0 0 0 0 0 0
Wind_Speed_500mb
68 67 68 72 71 84 99 103 97 92 85 80 78 73 68 59 60 57 61 63 61 58 56 56 51 45 42 40 38 35 32 32 23 21 19 14 9 9 12 11 15 20 26
72 71 67 77 78 84 87 103 98 91 83 83 79 77 72 62 60 60 61 60 64 60 58 56 53 50 45 42 38 32 31 27 25 18 15 12 6 4 10 12 15 20 25
65 75 75 79 82 86 89 95 90 92 87 80 76 71 66 65 62 60 60 61 61 62 59 58 53 50 45 42 38 33 26 24 23 22 13 12 9 8 3 8 14 16 30
62 73 78 82 87 84 84 87 100 108 93 82 83 83 83 81 73 66 65 65 62 62 61 56 53 50 46 40 36 31 26 21 20 20 14 11 13 11 9 5 9 18 29
62 64 80 87 86 83 84 91 99 109 103 99 90 95 85 81 77 73 72 69 65 61 62 59 54 50 47 42 35 31 26 22 17 15 15 12 10 8 8 10 13 20 22
71 71 65 79 91 88 82 91 104 108 111 105 99 95 88 97 85 81 78 74 71 66 61 60 57 52 47 42 37 31 26 21 17 13 11 7 4 3 1 3 11 13 13
80 83 81 74 94 97 88 90 103 104 111 110 105 98 90 86 85 86 84 81 77 72 67 63 62 57 48 42 36 31 25 20 15 11 7 3 1 4 6 9 12 15 15
79 79 86 79 87 95 93 90 98 106 116 118 110 95 88 82 82 87 85 84 82 79 74 67 61 57 51 43 36 30 24 18 13 8 4 1 4 8 11 13 15 16 12
45 76 81 78 82 93 98 93 99 107 114 117 112 104 93 90 94 96 88 82 83 82 75 68 62 57 52 44 36 29 23 18 13 8 4 2 5 9 12 14 18 19 15
46 45 76 85 83 96 102 94 101 113 118 117 115 109 102 93 88 90 87 84 84 83 78 72 64 58 52 45 38 31 24 17 12 7 5 5 9 11 13 15 18 20 20
45 57 48 73 80 92 101 99 96 108 115 121 116 109 103 96 79 83 84 87 86 86 80 75 68 59 53 45 38 31 24 17 12 7 7 7 11 14 17 20 19 21 23
24 2 38 63 74 93 96 99 93 108 112 115 113 114 105 96 97 88 92 89 88 88 82 76 69 61 52 45 37 29 23 17 13 8 11 9 11 13 17 18 20 23 24
25 23 19 53 68 92 98 96 90 108 112 116 117 116 113 107 95 94 94 90 89 88 86 79 73 65 53 45 37 30 23 18 13 9 11 12 14 16 17 19 21 22 26
25 22 18 32 59 93 96 91 92 107 107 114 119 118 113 104 104 103 98 92 92 89 86 82 75 65 56 46 38 30 24 17 13 9 10 13 15 16 18 19 22 26 28
16 27 23 23 29 91 93 93 89 98 106 113 118 120 116 115 108 102 97 96 90 87 85 82 72 65 54 48 38 30 23 18 12 10 12 12 14 16 17 20 22 26 28
18 24 25 25 30 90 91 92 91 96 102 113 115 120 114 115 109 102 104 100 94 88 84 78 72 65 55 46 39 29 21 15 10 11 10 12 14 14 18 20 24 24 27
12 15 20 23 14 77 92 87 87 89 93 104 105 108 112 110 110 107 108 105 99 90 88 82 74 64 55 46 34 25 18 12 8 9 9 11 14 18 19 21 21 23 22
1 3 8 9 12 59 75 88 84 82 88 97 98 102 110 113 112 110 105 107 99 98 92 83 73 65 54 42 30 22 15 12 9 6 8 10 12 17 19 23 26 28 30
11 6 0 2 12 35 64 77 80 78 87 95 102 108 112 111 108 108 108 102 105 101 95 83 71 59 51 38 28 19 15 11 7 4 5 8 11 16 21 26 28 31 33
5 4 3 11 14 23 44 63 74 79 85 96 105 112 113 109 107 108 106 101 100 99 87 74 62 47 44 32 23 17 12 8 4 2 3 10 13 19 25 30 32 35 37
6 6 2 11 18 32 46 68 77 81 88 98 104 103 100 102 104 107 106 108 104 96 84 70 56 43 33 31 23 14 9 7 6 2 3 9 17 23 29 32 32 34 38
5 2 8 14 19 34 46 63 72 78 85 92 97 97 96 95 105 102 105 104 101 93 83 67 57 43 36 28 20 10 3 6 3 1 5 11 18 23 26 29 32 29 31
8 8 9 15 17 21 31 53 61 69 78 81 85 88 92 98 101 108 110 105 96 88 75 59 56 47 37 24 11 14 12 7 2 4 8 12 18 22 24 26 25 33 38
16 15 15 19 23 25 31 39 54 63 75 86 93 96 101 103 98 102 99 90 82 75 71 65 50 38 29 25 21 16 11 6 5 9 13 17 20 21 23 26 30 34 37
22 21 25 30 36 39 48 54 60 66 77 83 87 90 92 94 101 96 90 80 69 61 58 46 40 38 34 29 21 14 10 6 5 8 12 15 17 20 24 27 30 33 36
31 36 40 43 50 54 64 71 75 76 91 101 100 99 105 103 101 99 87 63 55 52 48 44 38 39 31 27 20 14 9 6 8 10 12 14 18 22 26 29 33 35 38
Wind_Direction_500mb
212 210 212 213 210 207 198 203 190 190 189 186 178 178 180 182 186 187 184 182 176 176 172 170 167 163 162 159 157 155 152 147 144 134 122 103 88 51 22 26 8 4 7
206 205 208 212 209 207 210 200 209 191 185 186 183 183 177 182 188 186 186 182 178 177 174 172 167 166 164 159 157 156 154 152 156 146 125 127 121 2 15 359 351 350 354
204 201 204 205 204 202 207 211 206 194 188 186 179 177 173 179 179 186 183 182 183 179 177 174 173 167 166 162 159 157 157 160 157 162 158 156 161 184 251 345 356 342 345
222 203 199 202 204 200 205 211 203 198 189 183 178 178 179 182 188 188 186 185 186 183 179 177 174 172 169 167 164 163 164 163 163 158 158 156 155 168 174 257 320 335 327
219 218 201 204 209 207 205 211 207 203 193 184 182 185 184 195 190 189 188 188 186 187 182 180 176 174 172 171 170 169 170 168 172 168 159 154 147 141 158 186 236 296 309
217 217 219 206 207 208 206 208 206 205 196 190 190 190 190 194 191 188 189 189 188 189 186 181 178 177 177 176 174 174 171 172 172 167 163 162 137 91 37 249 287 315 321
210 212 214 208 201 202 203 203 206 205 200 191 193 197 197 200 196 195 193 193 192 190 188 187 182 179 180 180 179 178 177 177 178 173 169 144 45 356 340 332 325 322 335
204 209 211 213 199 200 201 200 204 204 201 196 200 202 201 202 203 202 197 199 196 193 191 189 186 182 181 183 182 181 181 182 185 188 193 247 335 339 337 333 331 335 327
218 207 209 211 202 200 203 201 203 204 203 203 204 203 203 202 203 202 199 201 199 196 193 191 190 187 185 184 185 186 186 184 187 198 224 282 323 331 337 334 332 336 331
238 214 208 207 207 203 205 202 203 199 203 205 203 197 193 195 206 202 200 199 201 198 194 193 194 191 187 186 188 190 191 193 196 208 252 302 317 324 333 335 330 327 323
217 225 219 205 204 197 200 199 201 199 201 199 201 196 194 190 203 209 207 205 200 199 198 196 195 195 192 190 191 193 195 201 212 232 268 303 313 324 330 331 324 323 315
6 12 213 200 202 196 199 200 201 200 199 201 202 196 197 193 201 205 209 206 202 199 197 199 197 196 196 194 195 198 199 206 221 237 266 301 302 314 323 318 318 319 313
356 338 265 204 198 197 196 202 203 199 200 200 203 201 199 194 198 206 208 206 204 200 195 198 198 197 196 195 195 198 204 210 225 242 285 295 306 314 317 311 314 315 310
337 331 301 248 206 196 194 193 200 204 197 199 198 199 197 196 198 204 206 206 202 200 196 195 196 195 193 197 198 200 205 215 231 260 279 291 306 313 312 311 319 312 311
340 327 314 290 236 193 188 193 199 202 197 197 199 201 200 198 198 205 205 203 201 199 196 192 189 192 192 196 197 200 208 213 228 268 277 294 302 314 312 315 318 314 314
339 326 325 335 230 188 182 186 194 198 197 196 196 199 196 197 198 205 203 200 197 194 193 192 191 189 190 192 194 199 207 216 247 262 285 296 305 308 315 323 324 326 330
321 326 334 337 267 186 188 182 188 197 198 195 191 192 195 195 199 200 199 197 193 192 189 188 187 187 188 193 193 195 204 221 239 253 286 298 311 314 324 324 322 320 321
296 341 305 337 80 173 176 178 188 195 197 193 189 191 193 197 201 199 198 194 190 186 186 184 183 183 185 188 191 190 196 213 211 242 279 290 306 313 327 323 327 325 321
124 201 219 160 123 167 174 180 186 193 191 189 192 193 196 197 195 194 189 186 183 179 177 179 178 179 175 177 181 187 191 188 196 241 276 299 320 313 321 327 324 321 320
101 275 140 160 173 169 187 190 189 194 199 194 191 192 195 196 192 190 186 180 179 172 166 167 167 168 164 167 176 175 173 186 182 184 333 330 335 333 329 329 329 324 322
326 319 184 165 185 179 190 185 184 186 189 193 191 187 185 189 187 184 181 178 171 162 160 162 155 157 164 160 152 156 161 163 159 163 326 316 334 329 331 329 329 329 326
351 106 181 180 189 190 194 187 185 185 189 190 188 185 183 180 180 180 173 172 165 159 153 155 150 156 157 153 144 116 161 176 173 14 343 330 332 332 333 332 333 337 325
67 121 161 169 166 184 203 182 168 176 180 178 171 170 171 169 167 172 166 161 164 159 148 142 150 150 153 134 153 179 163 151 121 25 348 344 341 337 337 341 336 328 331
86 106 133 139 142 159 173 184 167 169 169 162 157 155 155 153 156 158 153 151 150 141 140 142 143 145 149 155 156 145 134 108 46 1 354 351 349 348 345 342 341 340 339
95 110 117 124 129 144 149 156 162 166 156 152 150 149 153 155 150 144 141 136 135 141 140 143 144 153 156 147 140 132 118 84 35 3 355 357 355 352 354 353 349 345 344
104 107 113 121 128 135 135 139 147 156 151 143 143 146 145 139 133 128 127 131 131 135 130 137 155 146 139 134 138 125 105 77 36 18 13 12 3 358 358 355 352 353 348
Wind_Speed_850mb
68 67 68 72 71 84 99 103 97 92 85 80 78 73 68 59 60 57 61 63 61 58 56 56 51 45 42 40 38 35 32 32 23 21 19 14 9 9 12 11 15 20 26
72 71 67 77 78 84 87 103 98 91 83 83 79 77 72 62 60 60 61 60 64 60 58 56 53 50 45 42 38 32 31 27 25 18 15 12 6 4 10 12 15 20 25
65 75 75 79 82 86 89 95 90 92 87 80 76 71 66 65 62 60 60 61 61 62 59 58 53 50 45 42 38 33 26 24 23 22 13 12 9 8 3 8 14 16 30
62 73 78 82 87 84 84 87 100 108 93 82 83 83 83 81 73 66 65 65 62 62 61 56 53 50 46 40 36 31 26 21 20 20 14 11 13 11 9 5 9 18 29
62 64 80 87 86 83 84 91 99 109 103 99 90 95 85 81 77 73 72 69 65 61 62 59 54 50 47 42 35 31 26 22 17 15 15 12 10 8 8 10 13 20 22
71 71 65 79 91 88 82 91 104 108 111 105 99 95 88 97 85 81 78 74 71 66 61 60 57 52 47 42 37 31 26 21 17 13 11 7 4 3 1 3 11 13 13
80 83 81 74 94 97 88 90 103 104 111 110 105 98 90 86 85 86 84 81 77 72 67 63 62 57 48 42 36 31 25 20 15 11 7 3 1 4 6 9 12 15 15
79 79 86 79 87 95 93 90 98 106 116 118 110 95 88 82 82 87 85 84 82 79 74 67 61 57 51 43 36 30 24 18 13 8 4 1 4 8 11 13 15 16 12
45 76 81 78 82 93 98 93 99 107 114 117 112 104 93 90 94 96 88 82 83 82 75 68 62 57 52 44 36 29 23 18 13 8 4 2 5 9 12 14 18 19 15
46 45 76 85 83 96 102 94 101 113 118 117 115 109 102 93 88 90 87 84 84 83 78 72 64 58 52 45 38 31 24 17 12 7 5 5 9 11 13 15 18 20 20
45 57 48 73 80 92 101 99 96 108 115 121 116 109 103 96 79 83 84 87 86 86 80 75 68 59 53 45 38 31 24 17 12 7 7 7 11 14 17 20 19 21 23
24 2 38 63 74 93 96 99 93 108 112 115 113 114 105 96 97 88 92 89 88 88 82 76 69 61 52 45 37 29 23 17 13 8 11 9 11 13 17 18 20 23 24
25 23 19 53 68 92 98 96 90 108 112 116 117 116 113 107 95 94 94 90 89 88 86 79 73 65 53 45 37 30 23 18 13 9 11 12 14 16 17 19 21 22 26
25 22 18 32 59 93 96 91 92 107 107 114 119 118 113 104 104 103 98 92 92 89 86 82 75 65 56 46 38 30 24 17 13 9 10 13 15 16 18 19 22 26 28
16 27 23 23 29 91 93 93 89 98 106 113 118 120 116 115 108 102 97 96 90 87 85 82 72 65 54 48 38 30 23 18 12 10 12 12 14 16 17 20 22 26 28
18 24 25 25 30 90 91 92 91 96 102 113 115 120 114 115 109 102 104 100 94 88 84 78 72 65 55 46 39 29 21 15 10 11 10 12 14 14 18 20 24 24 27
12 15 20 23 14 77 92 87 87 89 93 104 105 108 112 110 110 107 108 105 99 90 88 82 74 64 55 46 34 25 18 12 8 9 9 11 14 18 19 21 21 23 22
1 3 8 9 12 59 75 88 84 82 88 97 98 102 110 113 112 110 105 107 99 98 92 83 73 65 54 42 30 22 15 12 9 6 8 10 12 17 19 23 26 28 30
11 6 0 2 12 35 64 77 80 78 87 95 102 108 112 111 108 108 108 102 105 101 95 83 71 59 51 38 28 19 15 11 7 4 5 8 11 16 21 26 28 31 33
5 4 3 11 14 23 44 63 74 79 85 96 105 112 113 109 107 108 106 101 100 99 87 74 62 47 44 32 23 17 12 8 4 2 3 10 13 19 25 30 32 35 37
6 6 2 11 18 32 46 68 77 81 88 98 104 103 100 102 104 107 106 108 104 96 84 70 56 43 33 31 23 14 9 7 6 2 3 9 17 23 29 32 32 34 38
5 2 8 14 19 34 46 63 72 78 85 92 97 97 96 95 105 102 105 104 101 93 83 67 57 43 36 28 20 10 3 6 3 1 5 11 18 23 26 29 32 29 31
8 8 9 15 17 21 31 53 61 69 78 81 85 88 92 98 101 108 110 105 96 88 75 59 56 47 37 24 11 14 12 7 2 4 8 12 18 22 24 26 25 33 38
16 15 15 19 23 25 31 39 54 63 75 86 93 96 101 103 98 102 99 90 82 75 71 65 50 38 29 25 21 16 11 6 5 9 13 17 20 21 23 26 30 34 37
22 21 25 30 36 39 48 54 60 66 77 83 87 90 92 94 101 96 90 80 69 61 58 46 40 38 34 29 21 14 10 6 5 8 12 15 17 20 24 27 30 33 36
31 36 40 43 50 54 64 71 75 76 91 101 100 99 105 103 101 99 87 63 55 52 48 44 38 39 31 27 20 14 9 6 8 10 12 14 18 22 26 29 33 35 38
Wind_Direction_850mb
212 210 212 213 210 207 198 203 190 190 189 186 178 178 180 182 186 187 184 182 176 176 172 170 167 163 162 159 157 155 152 147 144 134 122 103 88 51 22 26 8 4 7
206 205 208 212 209 207 210 200 209 191 185 186 183 183 177 182 188 186 186 182 178 177 174 172 167 166 164 159 157 156 154 152 156 146 125 127 121 2 15 359 351 350 354
204 201 204 205 204 202 207 211 206 194 188 186 179 177 173 179 179 186 183 182 183 179 177 174 173 167 166 162 159 157 157 160 157 162 158 156 161 184 251 345 356 342 345
222 203 199 202 204 200 205 211 203 198 189 183 178 178 179 182 188 188 186 185 186 183 179 177 174 172 169 167 164 163 164 163 163 158 158 156 155 168 174 257 320 335 327
219 218 201 204 209 207 205 211 207 203 193 184 182 185 184 195 190 189 188 188 186 187 182 180 176 174 172 171 170 169 170 168 172 168 159 154 147 141 158 186 236 296 309
217 217 219 206 207 208 206 208 206 205 196 190 190 190 190 194 191 188 189 189 188 189 186 181 178 177 177 176 174 174 171 172 172 167 163 162 137 91 37 249 287 315 321
210 212 214 208 201 202 203 203 206 205 200 191 193 197 197 200 196 195 193 193 192 190 188 187 182 179 180 180 179 178 177 177 178 173 169 144 45 356 340 332 325 322 335
204 209 211 213 199 200 201 200 204 204 201 196 200 202 201 202 203 202 197 199 196 193 191 189 186 182 181 183 182 181 181 182 185 188 193 247 335 339 337 333 331 335 327
218 207 209 211 202 200 203 201 203 204 203 203 204 203 203 202 203 202 199 201 199 196 193 191 190 187 185 184 185 186 186 184 187 198 224 282 323 331 337 334 332 336 331
238 214 208 207 207 203 205 202 203 199 203 205 203 197 193 195 206 202 200 199 201 198 194 193 194 191 187 186 188 190 191 193 196 208 252 302 317 324 333 335 330 327 323
217 225 219 205 204 197 200 199 201 199 201 199 201 196 194 190 203 209 207 205 200 199 198 196 195 195 192 190 191 193 195 201 212 232 268 303 313 324 330 331 324 323 315
6 12 213 200 202 196 199 200 201 200 199 201 202 196 197 193 201 205 209 206 202 199 197 199 197 196 196 194 195 198 199 206 221 237 266 301 302 314 323 318 318 319 313
356 338 265 204 198 197 196 202 203 199 200 200 203 201 199 194 198 206 208 206 204 200 195 198 198 197 196 195 195 198 204 210 225 242 285 295 306 314 317 311 314 315 310
337 331 301 248 206 196 194 193 200 204 197 199 198 199 197 196 198 204 206 206 202 200 196 195 196 195 193 197 198 200 205 215 231 260 279 291 306 313 312 311 319 312 311
340 327 314 290 236 193 188 193 199 202 197 197 199 201 200 198 198 205 205 203 201 199 196 192 189 192 192 196 197 200 208 213 228 268 277 294 302 314 312 315 318 314 314
339 326 325 335 230 188 182 186 194 198 197 196 196 199 196 197 198 205 203 200 197 194 193 192 191 189 190 192 194 199 207 216 247 262 285 296 305 308 315 323 324 326 330
321 326 334 337 267 186 188 182 188 197 198 195 191 192 195 195 199 200 199 197 193 192 189 188 187 187 188 193 193 195 204 221 239 253 286 298 311 314 324 324 322 320 321
296 341 305 337 80 173 176 178 188 195 197 193 189 191 193 197 201 199 198 194 190 186 186 184 183 183 185 188 191 190 196 213 211 242 279 290 306 313 327 323 327 325 321
124 201 219 160 123 167 174 180 186 193 191 189 192 193 196 197 195 194 189 186 183 179 177 179 178 179 175 177 181 187 191 188 196 241 276 299 320 313 321 327 324 321 320
101 275 140 160 173 169 187 190 189 194 199 194 191 192 195 196 192 190 186 180 179 172 166 167 167 168 164 167 176 175 173 186 182 184 333 330 335 333 329 329 329 324 322
326 319 184 165 185 179 190 185 184 186 189 193 191 187 185 189 187 184 181 178 171 162 160 162 155 157 164 160 152 156 161 163 159 163 326 316 334 329 331 329 329 329 326
351 106 181 180 189 190 194 187 185 185 189 190 188 185 183 180 180 180 173 172 165 159 153 155 150 156 157 153 144 116 161 176 173 14 343 330 332 332 333 332 333 337 325
67 121 161 169 166 184 203 182 168 176 180 178 171 170 171 169 167 172 166 161 164 159 148 142 150 150 153 134 153 179 163 151 121 25 348 344 341 337 337 341 336 328 331
86 106 133 139 142 159 173 184 167 169 169 162 157 155 155 153 156 158 153 151 150 141 140 142 143 145 149 155 156 145 134 108 46 1 354 351 349 348 345 342 341 340 339
95 110 117 124 129 144 149 156 162 166 156 152 150 149 153 155 150 144 141 136 135 141 140 143 144 153 156 147 140 132 118 84 35 3 355 357 355 352 354 353 349 345 344
104 107 113 121 128 135 135 139 147 156 151 143 143 146 145 139 133 128 127 131 131 135 130 137 155 146 139 134 138 125 105 77 36 18 13 12 3 358 358 355 352 353 348